Weather in Langley

Canada     49°06′24″N   122°39′35″W
temp.,
°C
wind,
m/s
gust,
m/s
humid.,
%
clouds,
%
prec.,
mm/h
press.,
hPa
HPBL,
m
20 may, fri
fri2023:00+6ese22765 0.0 102422
02:00+4ene22865 0.0 102540
05:00+3ene22925 0.0 102557
08:00+8e23695 0.0 1026266
11:00+12sw22615 0.0 1025865
14:00+13wsw43591 0.0 1024779
17:00+13wsw33600 0.0 1022467
20:00+11sw11791 0.0 102131
21 may, sat
sat2123:00+7ne11904 0.0 102213
02:00+6ene22945 0.0 102233
05:00+5ene229237 0.0 102336
08:00+10ene12681 0.0 1023188
11:00+14w22540 0.0 1023632
14:00+15w33550 0.0 1022550
17:00+17wsw34430 0.0 1021498
20:00+11wsw22720 0.0 102035
22 may, sun
sun2223:00+8ese11800 0.0 102211
02:00+6ene22810 0.0 102328
05:00+6ene22890 0.0 102331
08:00+11e23660 0.0 1024229
11:00+15s225622 0.0 1023578
14:00+15sw2253100 0.0 1023533
17:00+16ssw3349100 0.0 1021337
20:00+12se2373100 0.0 102044
23 may, mon
mon2323:00+10e237299 0.0 102039
02:00+9e3476100 0.0 102083
05:00+9se477873 0.0 1020239
08:00+11sse567678 0.0 1021448
11:00+13s44645 0.0 1021622
14:00+15sse44565 0.0 1020697
17:00+16sse34564 0.0 1018638
20:00+12se47765 0.0 1017228
24 may, tue
tue2423:00+9se488949 0.0 1018225
02:00+8se379296 0.0 1018230
05:00+9se3687100 0.0 1019329
08:00+10sse458278 0.0 1019568
11:00+12s3474100 0.0 1020723
14:00+14ssw3363100 0.0 1018814
17:00+14sw1265100 0.0 1017265
20:00+11wnw2288100 0.5 101762